Location: San Antonio de Areco
(34.2500°S, 59.4670°W)
Time: 15:36:06
(UTC-03:00)

ISS - Visible Passes

Search period start: 24 July 2016 00:00
Search period end: 03 August 2016 00:00
Orbit: 401 x 404 km, 51.6° (Epoch: 24 July)

Date Brightness Start Highest point End Pass type
(mag) Time Alt. Az. Time Alt. Az. Time Alt. Az.
30 Jul -1.4 07:26:30 10° NNW 07:29:32 35° NE 07:32:37 10° ESE visible
31 Jul -0.2 06:34:36 10° N 06:36:47 16° NE 06:38:57 10° E visible
01 Aug -3.4 07:16:41 10° NW 07:19:59 78° SW 07:23:19 10° SE visible
02 Aug -2.2 06:24:28 14° NNW 06:27:06 44° NE 06:30:17 10° ESE visible
